When you browse on this site, cookies collect data to enhance your experience and personalize the content and advertising you see.
Visit our Privacy Policy to learn more. By continuing to use the site, you agree to this use of cookies and data.
  • In Hungary
  • List of Countries
  • For 7 days
  • Water Temperature
  • Satellite Maps
  • Weather Map
  • News
  • Weather Widgets
  • user-avatar
    Login

    Hourly Weather Leeuwarden

    Today, 24 January, Thursday

    Time Temperature Precipitation Wind Pressure Humidity
    00:00 -6°C° 0 mm 1 mps 755 mmHg 90%
    01:00 -6°C° 0 mm 1 mps 755 mmHg 89%
    02:00 -6°C° 0 mm 1 mps 756 mmHg 88%
    03:00 -6°C° 0 mm 1 mps 756 mmHg 87%
    04:00 -6°C° 0 mm 1 mps 756 mmHg 86%
    05:00 -7°C° 0 mm 2 mps 756 mmHg 84%
    06:00 -7°C° 0 mm 2 mps 757 mmHg 83%
    07:00 -7°C° 0 mm 2 mps 757 mmHg 81%
    08:00 -6°C° 0 mm 2 mps 757 mmHg 79%
    09:00 -6°C° 0 mm 2 mps 757 mmHg 78%
    10:00 -5°C° 0 mm 2 mps 758 mmHg 75%
    11:00 -4°C° 0 mm 2 mps 758 mmHg 71%
    12:00 -4°C° 0 mm 2 mps 758 mmHg 68%
    13:00 -2°C° 0 mm 1 mps 758 mmHg 71%
    14:00 -2°C° 0 mm 1 mps 758 mmHg 73%
    15:00 -2°C° 0 mm 1 mps 758 mmHg 76%
    16:00 -2°C° 0 mm 1 mps 759 mmHg 78%
    17:00 -5°C° 0 mm 2 mps 759 mmHg 81%
    18:00 -6°C° 0 mm 2 mps 759 mmHg 83%
    19:00 -6°C° 0 mm 2 mps 759 mmHg 82%
    20:00 -6°C° 0 mm 2 mps 760 mmHg 82%
    21:00 -6°C° 0 mm 2 mps 760 mmHg 82%
    22:00 -6°C° 0 mm 2 mps 760 mmHg 81%
    23:00 -6°C° 0 mm 2 mps 760 mmHg 80%

    Tomorrow, 25 January, Friday

    Time Temperature Precipitation Wind Pressure Humidity
    00:00 -4°C° 0 mm 1 mps 761 mmHg 79%
    01:00 -6°C° 0 mm 2 mps 761 mmHg 79%
    02:00 -6°C° 0 mm 2 mps 761 mmHg 80%
    03:00 -6°C° 0 mm 2 mps 761 mmHg 80%
    04:00 -6°C° 0 mm 2 mps 761 mmHg 81%
    05:00 -6°C° 0 mm 2 mps 761 mmHg 82%
    06:00 -7°C° 0 mm 3 mps 761 mmHg 83%
    07:00 -7°C° 0 mm 3 mps 761 mmHg 84%
    08:00 -6°C° 0 mm 3 mps 761 mmHg 86%
    09:00 -5°C° 0 mm 4 mps 761 mmHg 87%
    10:00 -4°C° 0 mm 4 mps 760 mmHg 88%
    11:00 -2°C° 0 mm 5 mps 760 mmHg 90%
    12:00 -1°C° 0 mm 5 mps 760 mmHg 92%
    13:00 -1°C° 0.3 mm 6 mps 759 mmHg 93%
    14:00 -1°C° 0.3 mm 7 mps 758 mmHg 93%
    15:00 -1°C° 0.3 mm 8 mps 758 mmHg 94%
    16:00 0°C° 0.5 mm 7 mps 758 mmHg 95%
    17:00 +2°C° 0.5 mm 7 mps 757 mmHg 96%
    18:00 +2°C° 0.5 mm 7 mps 757 mmHg 96%
    19:00 +3°C° 0.1 mm 7 mps 757 mmHg 97%
    20:00 +3°C° 0.1 mm 6 mps 757 mmHg 97%
    21:00 +3°C° 0.1 mm 6 mps 757 mmHg 97%
    22:00 +3°C° 0 mm 6 mps 757 mmHg 96%
    23:00 +4°C° 0 mm 7 mps 756 mmHg 96%

    Day after tomorrow, 26 January, Saturday

    Time Temperature Precipitation Wind Pressure Humidity
    00:00 +4°C° 0 mm 7 mps 756 mmHg 95%
    01:00 +4°C° 0.2 mm 8 mps 755 mmHg 95%
    02:00 +3°C° 0.2 mm 9 mps 755 mmHg 95%
    03:00 +5°C° 0.2 mm 10 mps 755 mmHg 94%
    04:00 +5°C° 1.1 mm 10 mps 754 mmHg 94%
    05:00 +5°C° 1.1 mm 10 mps 754 mmHg 94%
    06:00 +5°C° 1.1 mm 10 mps 754 mmHg 94%
    07:00 +5°C° 0.2 mm 9 mps 754 mmHg 94%
    08:00 +5°C° 0.2 mm 9 mps 754 mmHg 94%
    09:00 +5°C° 0.2 mm 8 mps 755 mmHg 93%
    10:00 +5°C° 0 mm 8 mps 754 mmHg 93%
    11:00 +5°C° 0 mm 7 mps 754 mmHg 93%
    12:00 +5°C° 0 mm 7 mps 754 mmHg 92%
    13:00 +5°C° 0 mm 7 mps 754 mmHg 92%
    14:00 +5°C° 0 mm 6 mps 753 mmHg 92%
    15:00 +4°C° 0 mm 6 mps 752 mmHg 93%
    16:00 +4°C° 0 mm 6 mps 752 mmHg 93%
    17:00 +4°C° 0 mm 6 mps 751 mmHg 94%
    18:00 +4°C° 0 mm 6 mps 751 mmHg 94%
    19:00 +4°C° 0.4 mm 6 mps 750 mmHg 94%
    20:00 +5°C° 0.4 mm 7 mps 749 mmHg 93%
    21:00 +5°C° 0.4 mm 7 mps 748 mmHg 93%
    22:00 +5°C° 0.3 mm 7 mps 747 mmHg 93%
    23:00 +4°C° 0.3 mm 8 mps 746 mmHg 92%

    27 January, Sunday

    Time Temperature Precipitation Wind Pressure Humidity
    00:00 +4°C° 0.3 mm 8 mps 745 mmHg 92%
    01:00 +4°C° 1.1 mm 8 mps 744 mmHg 92%
    02:00 +4°C° 1.1 mm 8 mps 743 mmHg 92%
    03:00 +2°C° 1.1 mm 8 mps 742 mmHg 91%
    04:00 +3°C° 0.1 mm 7 mps 742 mmHg 92%
    05:00 +3°C° 0.1 mm 6 mps 741 mmHg 93%
    06:00 +3°C° 0.1 mm 6 mps 740 mmHg 93%
    07:00 +3°C° 0.2 mm 6 mps 740 mmHg 93%
    08:00 +3°C° 0.2 mm 6 mps 739 mmHg 92%
    09:00 +4°C° 0.2 mm 6 mps 739 mmHg 92%
    10:00 +4°C° 0.1 mm 6 mps 739 mmHg 89%
    11:00 +4°C° 0.1 mm 6 mps 738 mmHg 86%
    12:00 +4°C° 0.1 mm 6 mps 738 mmHg 84%
    13:00 +5°C° 0.4 mm 5 mps 738 mmHg 85%
    14:00 +5°C° 0.4 mm 4 mps 738 mmHg 87%
    15:00 +4°C° 0.4 mm 4 mps 737 mmHg 89%
    16:00 +4°C° 0.2 mm 3 mps 737 mmHg 91%
    17:00 +3°C° 0.2 mm 3 mps 737 mmHg 92%
    18:00 +4°C° 0.2 mm 2 mps 738 mmHg 94%
    19:00 +4°C° 0.2 mm 2 mps 738 mmHg 95%
    20:00 +4°C° 0.2 mm 1 mps 738 mmHg 95%
    21:00 +4°C° 0.2 mm 1 mps 738 mmHg 96%
    22:00 +4°C° 0 mm 1 mps 738 mmHg 96%
    23:00 +3°C° 0 mm 2 mps 738 mmHg 96%

    28 January, Monday

    Time Temperature Precipitation Wind Pressure Humidity
    00:00 +2°C° 0 mm 2 mps 739 mmHg 96%
    01:00 +2°C° 0 mm 3 mps 739 mmHg 96%
    02:00 +2°C° 0 mm 3 mps 739 mmHg 95%
    03:00 +2°C° 0 mm 3 mps 740 mmHg 95%
    04:00 +1°C° 0.5 mm 6 mps 741 mmHg 92%
    05:00 +1°C° 0.5 mm 9 mps 741 mmHg 88%
    06:00 +1°C° 0.5 mm 11 mps 742 mmHg 85%
    07:00 +1°C° 0.1 mm 11 mps 743 mmHg 82%
    08:00 +1°C° 0.1 mm 11 mps 744 mmHg 80%
    09:00 0°C° 0.1 mm 10 mps 746 mmHg 77%
    10:00 +1°C° 0 mm 10 mps 746 mmHg 75%
    11:00 +1°C° 0 mm 10 mps 747 mmHg 72%
    12:00 +2°C° 0 mm 9 mps 748 mmHg 69%
    13:00 +1°C° 0.1 mm 9 mps 748 mmHg 68%
    14:00 +1°C° 0.1 mm 8 mps 749 mmHg 67%
    15:00 +1°C° 0.1 mm 8 mps 749 mmHg 66%
    16:00 0°C° 0 mm 7 mps 750 mmHg 69%
    17:00 +1°C° 0 mm 6 mps 750 mmHg 71%
    18:00 -1°C° 0 mm 6 mps 751 mmHg 74%
    19:00 -1°C° 0.1 mm 6 mps 751 mmHg 74%
    20:00 0°C° 0.1 mm 5 mps 752 mmHg 75%
    21:00 0°C° 0.1 mm 5 mps 752 mmHg 76%
    22:00 0°C° 0.1 mm 5 mps 752 mmHg 76%
    23:00 0°C° 0.1 mm 5 mps 752 mmHg 75%

    29 January, Tuesday

    Time Temperature Precipitation Wind Pressure Humidity
    00:00 0°C° 0.1 mm 5 mps 752 mmHg 75%
    01:00 0°C° 0.1 mm 5 mps 752 mmHg 78%
    02:00 0°C° 0.1 mm 5 mps 751 mmHg 80%
    03:00 0°C° 0.1 mm 5 mps 751 mmHg 83%
    04:00 -1°C° 0.1 mm 6 mps 751 mmHg 84%
    05:00 -1°C° 0.1 mm 6 mps 750 mmHg 85%
    06:00 -1°C° 0.1 mm 7 mps 750 mmHg 85%
    07:00 -1°C° 0.2 mm 6 mps 750 mmHg 84%
    08:00 -1°C° 0.2 mm 6 mps 750 mmHg 83%
    09:00 +1°C° 0.2 mm 6 mps 750 mmHg 81%
    10:00 0°C° 0.1 mm 7 mps 750 mmHg 78%
    11:00 +2°C° 0.1 mm 7 mps 750 mmHg 74%
    12:00 +1°C° 0.1 mm 8 mps 750 mmHg 71%
    13:00 +2°C° 0.1 mm 7 mps 749 mmHg 72%
    14:00 0°C° 0.1 mm 7 mps 749 mmHg 74%
    15:00 0°C° 0.1 mm 7 mps 749 mmHg 75%
    16:00 -1°C° 0.3 mm 6 mps 749 mmHg 78%
    17:00 -1°C° 0.3 mm 6 mps 748 mmHg 81%
    18:00 -1°C° 0.3 mm 6 mps 748 mmHg 83%
    19:00 -1°C° 0.4 mm 6 mps 748 mmHg 84%
    20:00 -1°C° 0.4 mm 6 mps 748 mmHg 84%
    21:00 -1°C° 0.4 mm 6 mps 747 mmHg 85%
    22:00 -1°C° 0.3 mm 5 mps 747 mmHg 84%
    23:00 -1°C° 0.3 mm 5 mps 747 mmHg 83%
    Show more